| time (UTC) | temp F | wind direction | speed knots | gust knots | rain 1hr in | rain 24hr in | rain mn in | humidity % | barometer mb |
| 20260906224606 | 66 | 337 | 7.0 | 10.4 | 0.00 | 0.02 | 0.02 | 67 | 1016.6 |
| 20260906223107 | 66 | 355 | 7.8 | 10.4 | 0.00 | 0.02 | 0.02 | 68 | 1016.7 |
| 20260906221602 | 66 | 350 | 6.1 | 11.3 | 0.00 | 0.02 | 0.02 | 68 | 1016.8 |
| 20260906220112 | 65 | 11 | 7.0 | 10.4 | 0.00 | 0.02 | 0.02 | 68 | 1016.6 |
| 20260906214606 | 65 | 22 | 7.8 | 14.8 | 0.00 | 0.02 | 0.02 | 69 | 1016.6 |
| 20260906213115 | 65 | 44 | 4.3 | 10.4 | 0.00 | 0.02 | 0.02 | 68 | 1016.7 |
| 20260906211623 | 65 | 15 | 3.5 | 8.7 | 0.00 | 0.02 | 0.02 | 68 | 1016.8 |
| 20260906210138 | 65 | 11 | 6.1 | 10.4 | 0.00 | 0.02 | 0.02 | 69 | 1016.8 |
| 20260906204629 | 64 | 45 | 5.2 | 10.4 | 0.00 | 0.02 | 0.02 | 69 | 1016.9 |
| 20260906203127 | 64 | 19 | 4.3 | 9.6 | 0.00 | 0.02 | 0.02 | 69 | 1016.9 |
| 20260906201607 | 64 | 31 | 7.8 | 10.4 | 0.00 | 0.02 | 0.02 | 69 | 1017.0 |
| 20260906200127 | 64 | 53 | 6.1 | 8.7 | 0.00 | 0.02 | 0.02 | 69 | 1017.3 |
| 20260906194627 | 63 | 56 | 6.1 | 12.2 | 0.00 | 0.02 | 0.02 | 71 | 1017.3 |
| 20260906193124 | 63 | 18 | 7.0 | 13.9 | 0.00 | 0.02 | 0.02 | 71 | 1017.2 |
| 20260906191628 | 63 | 40 | 9.6 | 14.8 | 0.00 | 0.02 | 0.02 | 72 | 1017.2 |
| 20260906190127 | 62 | 28 | 9.6 | 17.4 | 0.00 | 0.02 | 0.02 | 74 | 1017.5 |
| 20260906184630 | 62 | 42 | 11.3 | 15.6 | 0.00 | 0.02 | 0.02 | 74 | 1017.3 |
| 20260906183125 | 61 | 40 | 14.8 | 20.0 | 0.00 | 0.02 | 0.02 | 76 | 1017.6 |
| 20260906181631 | 60 | 57 | 15.6 | 21.7 | 0.00 | 0.02 | 0.02 | 81 | 1017.4 |
| 20260906180132 | 58 | 24 | 13.0 | 16.5 | 0.00 | 0.02 | 0.02 | 85 | 1018.1 |
| 20260906174629 | 57 | 355 | 12.2 | 15.6 | 0.01 | 0.02 | 0.02 | 86 | 1018.7 |
| 20260906173126 | 58 | 360 | 7.8 | 9.6 | 0.01 | 0.02 | 0.02 | 89 | 1018.9 |
| 20260906171627 | 57 | 20 | 8.7 | 10.4 | 0.01 | 0.02 | 0.02 | 90 | 1019.0 |
| 20260906170128 | 56 | 319 | 4.3 | 7.8 | 0.00 | 0.01 | 0.01 | 90 | 1018.9 |
| 20260906164628 | 56 | 347 | 4.3 | 7.8 | 0.01 | 0.01 | 0.01 | 91 | 1018.9 |
| 20260906163129 | 56 | 350 | 6.1 | 8.7 | 0.01 | 0.01 | 0.01 | 91 | 1018.9 |
| 20260906161621 | 55 | 355 | 6.1 | 11.3 | 0.01 | 0.01 | 0.01 | 90 | 1019.1 |
| 20260906160129 | 55 | 347 | 10.4 | 14.8 | 0.01 | 0.01 | 0.01 | 89 | 1019.1 |
| 20260906154624 | 55 | 339 | 11.3 | 13.9 | 0.00 | 0.00 | 0.00 | 86 | 1019.2 |
| 20260906153041 | 58 | 351 | 9.6 | 13.0 | 0.00 | 0.00 | 0.00 | 83 | 1019.6 |
| 20260906151550 | 59 | 59 | 0.0 | 4.3 | 0.00 | 0.00 | 0.00 | 83 | 1020.0 |
| 20260906150036 | 59 | 40 | 3.5 | 6.1 | 0.00 | 0.00 | 0.00 | 83 | 1019.9 |
| 20260906144546 | 60 | 81 | 6.1 | 9.6 | 0.00 | 0.00 | 0.00 | 82 | 1019.9 |
| 20260906143042 | 60 | 36 | 5.2 | 13.9 | 0.00 | 0.00 | 0.00 | 82 | 1019.7 |
| 20260906141537 | 59 | 47 | 9.6 | 14.8 | 0.00 | 0.00 | 0.00 | 82 | 1019.3 |
| 20260906140036 | 59 | 65 | 7.8 | 12.2 | 0.00 | 0.00 | 0.00 | 83 | 1019.6 |
| 20260906134536 | 58 | 71 | 6.1 | 9.6 | 0.00 | 0.00 | 0.00 | 84 | 1019.6 |
| 20260906133044 | 57 | 44 | 6.1 | 8.7 | 0.00 | 0.00 | 0.00 | 85 | 1019.5 |
| 20260906131538 | 57 | 37 | 5.2 | 8.7 | 0.00 | 0.00 | 0.00 | 86 | 1019.5 |
| 20260906130038 | 56 | 15 | 8.7 | 11.3 | 0.00 | 0.00 | 0.00 | 86 | 1019.4 |
| 20260906124543 | 56 | 15 | 7.0 | 9.6 | 0.00 | 0.00 | 0.00 | 87 | 1019.7 |
| 20260906123041 | 56 | 13 | 8.7 | 14.8 | 0.00 | 0.00 | 0.00 | 87 | 1019.5 |
| 20260906121542 | 55 | 15 | 10.4 | 13.0 | 0.00 | 0.00 | 0.00 | 87 | 1019.2 |
| 20260906120038 | 55 | 360 | 10.4 | 13.9 | 0.00 | 0.00 | 0.00 | 87 | 1019.3 |
| 20260906114540 | 55 | 15 | 10.4 | 14.8 | 0.00 | 0.00 | 0.00 | 87 | 1019.2 |
| 20260906113049 | 55 | 22 | 12.2 | 16.5 | 0.00 | 0.00 | 0.00 | 86 | 1018.9 |
| 20260906111541 | 56 | 17 | 13.0 | 15.6 | 0.00 | 0.00 | 0.00 | 86 | 1018.9 |
| 20260906110037 | 55 | 5 | 13.0 | 15.6 | 0.00 | 0.00 | 0.00 | 86 | 1019.3 |
| 20260906104538 | 55 | 9 | 12.2 | 16.5 | 0.00 | 0.00 | 0.00 | 86 | 1019.4 |
| 20260906103049 | 55 | 14 | 13.9 | 19.1 | 0.00 | 0.00 | 0.00 | 86 | 1019.3 |
| 20260906101540 | 55 | 5 | 12.2 | 17.4 | 0.00 | 0.00 | 0.00 | 86 | 1019.5 |
| 20260906100040 | 55 | 22 | 13.9 | 18.2 | 0.00 | 0.00 | 0.00 | 86 | 1019.3 |
| 20260906094539 | 55 | 360 | 15.6 | 20.0 | 0.00 | 0.00 | 0.00 | 86 | 1019.1 |
| 20260906093050 | 55 | 355 | 13.9 | 17.4 | 0.00 | 0.00 | 0.00 | 85 | 1019.3 |
| 20260906091542 | 55 | 5 | 14.8 | 19.1 | 0.00 | 0.00 | 0.00 | 84 | 1019.1 |
| 20260906090048 | 55 | 352 | 17.4 | 21.7 | 0.00 | 0.00 | 0.00 | 84 | 1019.2 |
| 20260906084541 | 56 | 5 | 13.9 | 18.2 | 0.00 | 0.00 | 0.00 | 83 | 1019.6 |
| 20260906083037 | 56 | 10 | 13.9 | 19.1 | 0.00 | 0.00 | 0.00 | 83 | 1019.6 |
| 20260906081536 | 56 | 23 | 13.0 | 17.4 | 0.00 | 0.00 | 0.00 | 81 | 1019.8 |
| 20260906080039 | 57 | 16 | 14.8 | 20.0 | 0.00 | 0.00 | 0.00 | 81 | 1019.6 |
| 20260906074537 | 57 | 31 | 13.9 | 20.0 | 0.00 | 0.00 | 0.00 | 80 | 1019.7 |
| 20260906073037 | 57 | 28 | 14.8 | 18.2 | 0.00 | 0.00 | 0.00 | 79 | 1019.9 |
| 20260906071539 | 57 | 20 | 15.6 | 18.2 | 0.00 | 0.00 | 0.00 | 79 | 1019.9 |
| 20260906070037 | 57 | 11 | 15.6 | 20.9 | 0.00 | 0.00 | 0.00 | 79 | 1020.1 |
| 20260906064543 | 58 | 22 | 14.8 | 17.4 | 0.00 | 0.00 | 0.00 | 78 | 1020.3 |
| 20260906063036 | 58 | 355 | 15.6 | 19.1 | 0.00 | 0.00 | 0.00 | 78 | 1020.4 |
| 20260906061546 | 58 | 22 | 14.8 | 20.0 | 0.00 | 0.00 | 0.00 | 77 | 1020.3 |
| 20260906060043 | 58 | 26 | 14.8 | 19.1 | 0.00 | 0.00 | 0.00 | 77 | 1020.3 |
| 20260906054546 | 58 | 24 | 14.8 | 21.7 | 0.00 | 0.00 | 0.00 | 76 | 1020.4 |
| 20260906053044 | 58 | 14 | 17.4 | 22.6 | 0.00 | 0.00 | 0.00 | 76 | 1020.0 |
| 20260906051544 | 58 | 10 | 16.5 | 22.6 | 0.00 | 0.00 | 0.00 | 74 | 1020.0 |
| 20260906050045 | 59 | 22 | 15.6 | 21.7 | 0.00 | 0.00 | 0.00 | 73 | 1020.1 |
| 20260906044545 | 59 | 360 | 17.4 | 22.6 | 0.00 | 0.00 | 0.00 | 71 | 1020.5 |
| 20260906043043 | 60 | 5 | 15.6 | 21.7 | 0.00 | 0.00 | 0.00 | 70 | 1019.8 |
| 20260906041551 | 60 | 16 | 16.5 | 25.2 | 0.00 | 0.00 | 0.00 | 68 | 1019.6 |
| 20260906040047 | 60 | 13 | 19.1 | 22.6 | 0.00 | 0.00 | 0.00 | 68 | 1019.1 |
| 20260906034545 | 60 | 19 | 15.6 | 23.5 | 0.00 | 0.00 | 0.00 | 67 | 1019.7 |
| 20260906033055 | 60 | 17 | 17.4 | 25.2 | 0.00 | 0.00 | 0.00 | 67 | 1019.8 |
| 20260906031548 | 61 | 5 | 20.0 | 24.3 | 0.00 | 0.00 | 0.00 | 66 | 1019.9 |
| 20260906030059 | 60 | 26 | 16.5 | 23.5 | 0.00 | 0.00 | 0.00 | 66 | 1018.9 |
| 20260906024556 | 60 | 15 | 17.4 | 21.7 | 0.00 | 0.00 | 0.00 | 65 | 1018.2 |
| 20260906023051 | 61 | 13 | 16.5 | 25.2 | 0.00 | 0.00 | 0.00 | 65 | 1018.5 |
| 20260906021551 | 62 | 15 | 18.2 | 24.3 | 0.00 | 0.00 | 0.00 | 63 | 1018.7 |
| 20260906014557 | 64 | 11 | 15.6 | 21.7 | 0.00 | 0.00 | 0.00 | 59 | 1018.7 |
| 20260906013054 | 65 | 5 | 13.9 | 18.2 | 0.00 | 0.00 | 0.00 | 56 | 1018.5 |
| 20260906011550 | 66 | 16 | 15.6 | 21.7 | 0.00 | 0.00 | 0.00 | 54 | 1018.4 |
| 20260906010050 | 68 | 9 | 15.6 | 20.0 | 0.00 | 0.00 | 0.00 | 50 | 1018.6 |
| 20260906004549 | 69 | 19 | 16.5 | 20.9 | 0.00 | 0.00 | 0.00 | 48 | 1018.4 |
| 20260906003054 | 72 | 5 | 13.9 | 19.1 | 0.00 | 0.00 | 0.00 | 43 | 1018.6 |
| 20260906001553 | 74 | 30 | 10.4 | 13.0 | 0.00 | 0.00 | 0.00 | 35 | 1018.7 |
| 20260906000052 | 74 | 69 | 9.6 | 13.0 | 0.00 | 0.00 | 0.00 | 34 | 1018.8 |
| 20260905234556 | 74 | 68 | 7.0 | 13.0 | 0.00 | 0.00 | 0.00 | 35 | 1019.1 |
| 20260905233050 | 74 | 61 | 6.1 | 10.4 | 0.00 | 0.00 | 0.00 | 35 | 1019.2 |
| 20260905231552 | 74 | 86 | 5.2 | 11.3 | 0.00 | 0.00 | 0.00 | 34 | 1018.9 |
| 20260905230053 | 76 | 81 | 0.9 | 10.4 | 0.00 | 0.00 | 0.00 | 34 | 1018.8 |